Location: Berlin
(42.3812°N, 71.6370°W)
Time: 23:11:07
(UTC+00:00)

ATLAS 3B R/B - Pass Details

Date: 15 November 2025
Orbit: 935 x 1258 km, 63.8° (Epoch: 13 December)

Event Time Altitude Azimuth Distance (km) Brightness Sun altitude
Rises 10:43:51 0° 234° (SW) 4,018 5.3 -10.2°
Reaches altitude 10° 10:46:36 10° 239° (WSW) 3,100 4.7 -9.7°
Maximum altitude 10:53:53 51° 314° (NW) 1,521 3.2 -8.4°
Drops below altitude 10° 11:01:31 10° 29° (NNE) 3,245 5.4 -7.0°
Sets 11:04:29 0° 35° (NE) 4,218 6.0 -6.5°
